Change the Weather History Date:

Sunday, June 8, 2014

  Actual Average Record
Temperature  
Mean Temperature 64 °F 68 °F  
Max Temperature 73 °F 78 °F 96 °F (2011)
Min Temperature 54 °F 57 °F 48 °F (1996)
Degree Days  
Heating Degree Days 1 2  
Month to date heating degree days 5 19  
Since 1 June heating degree days 5 19  
Since 1 July heating degree days 7324 6205  
Cooling Degree Days 0 4  
Month to date cooling degree days 38 31  
Year to date cooling degree days 126 89  
Since 1 June cooling degree days 38 31  
Growing Degree Days 13 (Base 50)    
Moisture  
Dew Point 50 °F    
Average Humidity 64    
Maximum Humidity 94    
Minimum Humidity 31    
Precipitation  
Precipitation 0.17 in 0.16 in 2.38 in (2008)
Month to date precipitation 0.81 1.24  
Year to date precipitation 16.18 15.94  
Sea Level Pressure  
Sea Level Pressure 29.97 in    
Wind  
Wind Speed 14 mph (NNE)    
Max Wind Speed 21 mph    
Max Gust Speed 32 mph    
Visibility 10 miles    
Events Rain    
T = Trace of Precipitation, MM = Missing Value Source: NWS Daily Summary

Daily Weather History Graph

Daily Weather History Graph

Search for Another Location

Airport or City:

Trip Planner

Search our weather history database for the weather conditions in past years. The results will help you decide how hot, cold, wet, or windy it might be!

Date:

Astronomy

Jun. 08, 2014 Rise Set
Actual Time 5:18 AM CDT 8:24 PM CDT
Civil Twilight 4:44 AM CDT 8:58 PM CDT
Nautical Twilight 4:01 AM CDT 9:42 PM CDT
Astronomical Twilight 3:10 AM CDT 10:33 PM CDT
Moon 3:39 PM CDT (6/8) 2:14 AM CDT (6/8)
Length of Visible Light 16h 14m
Length of Day
15h 06m
Waxing Gibbous, 77% of the Moon is Illuminated
Jun 8
Waxing Gibbous
Jun 12
Full
Jun 19
Last Quarter
Jun 27
New
Jul 5
First Quarter

Hourly Weather History & Observations

Time (CDT) Temp. Dew Point Humidity Pressure Visibility Wind Dir Wind Speed Gust Speed Precip Events Conditions
12:15 AM 63.0 °F 60.8 °F 93% 29.86 in 10.0 mi NNE 15.0 mph - N/A Rain Light Rain
12:35 AM 63.1 °F 61.2 °F 93% 29.84 in 7.0 mi NNE 15.0 mph - 0.02 in Rain Rain
12:55 AM 63.1 °F 61.3 °F 94% 29.84 in 7.0 mi NNE 13.8 mph 18.4 mph 0.05 in Rain Rain
1:15 AM 63.5 °F 61.7 °F 94% 29.84 in 7.0 mi NE 16.1 mph 19.6 mph 0.01 in Rain Light Rain
1:35 AM 63.5 °F 61.7 °F 94% 29.83 in 7.0 mi NE 17.3 mph 21.9 mph 0.03 in Rain Light Rain
1:55 AM 63.5 °F 61.3 °F 93% 29.82 in 5.0 mi ENE 16.1 mph 27.6 mph 0.09 in Rain Rain
2:15 AM 61.7 °F 58.6 °F 90% 29.82 in 7.0 mi ENE 20.7 mph 32.2 mph 0.04 in Rain Light Rain
2:35 AM 60.4 °F 57.9 °F 91% 29.86 in 10.0 mi North 15.0 mph 27.6 mph 0.05 in Rain Light Rain
2:55 AM 59.2 °F 56.5 °F 91% 29.85 in 10.0 mi NNE 18.4 mph 24.2 mph 0.06 in Rain Light Rain
3:15 AM 57.7 °F 55.4 °F 92% 29.83 in 10.0 mi NE 15.0 mph 24.2 mph N/A   Light Drizzle
3:35 AM 58.5 °F 55.2 °F 89% 29.84 in 10.0 mi NNE 17.3 mph 23.0 mph N/A   Overcast
3:55 AM 58.1 °F 54.7 °F 88% 29.86 in 10.0 mi NNE 13.8 mph - N/A   Mostly Cloudy
4:15 AM 57.6 °F 53.2 °F 85% 29.87 in 10.0 mi NNE 16.1 mph 24.2 mph N/A   Overcast
4:35 AM 56.8 °F 52.5 °F 85% 29.89 in 10.0 mi NNE 17.3 mph 21.9 mph N/A   Overcast
4:55 AM 55.9 °F 50.7 °F 83% 29.90 in 10.0 mi NNE 18.4 mph 27.6 mph N/A   Overcast
5:15 AM 55.2 °F 50.4 °F 84% 29.90 in 10.0 mi NE 17.3 mph - N/A   Overcast
5:35 AM 54.5 °F 50.4 °F 86% 29.89 in 10.0 mi NE 18.4 mph 25.3 mph N/A   Overcast
5:55 AM 54.5 °F 50.9 °F 88% 29.90 in 10.0 mi NE 19.6 mph 26.5 mph N/A   Overcast
6:15 AM 54.7 °F 51.4 °F 89% 29.91 in 10.0 mi NE 13.8 mph 21.9 mph N/A   Overcast
6:35 AM 55.4 °F 51.8 °F 88% 29.91 in 10.0 mi NNE 17.3 mph - N/A   Overcast
6:55 AM 56.3 °F 52.2 °F 86% 29.93 in 10.0 mi NNE 13.8 mph 25.3 mph N/A   Overcast
7:15 AM 56.7 °F 52.5 °F 86% 29.94 in 10.0 mi NNE 15.0 mph - N/A   Overcast
7:35 AM 58.8 °F 53.4 °F 82% 29.96 in 10.0 mi NNE 13.8 mph - N/A   Mostly Cloudy
7:55 AM 58.1 °F 52.3 °F 81% 29.99 in 10.0 mi NNE 9.2 mph - N/A   Mostly Cloudy
8:15 AM 58.8 °F 53.1 °F 81% 29.97 in 10.0 mi NNE 15.0 mph - N/A   Mostly Cloudy
8:35 AM 60.8 °F 54.0 °F 78% 29.98 in 10.0 mi NNE 16.1 mph 21.9 mph N/A   Scattered Clouds
8:55 AM 62.1 °F 54.7 °F 77% 29.98 in 10.0 mi NNE 15.0 mph 18.4 mph N/A   Clear
9:15 AM 62.6 °F 55.4 °F 77% 29.99 in 10.0 mi NNE 12.7 mph - N/A   Clear
9:35 AM 64.0 °F 54.7 °F 72% 29.99 in 10.0 mi NNE 15.0 mph - N/A   Clear
9:55 AM 65.7 °F 56.3 °F 72% 29.98 in 10.0 mi NNE 15.0 mph 18.4 mph N/A   Clear
10:15 AM 65.7 °F 55.6 °F 70% 29.98 in 10.0 mi NNE 18.4 mph 24.2 mph N/A   Clear
10:35 AM 66.6 °F 56.3 °F 69% 29.98 in 10.0 mi North 15.0 mph 21.9 mph N/A   Clear
10:55 AM 67.8 °F 56.7 °F 67% 29.98 in 10.0 mi NNE 13.8 mph 20.7 mph N/A   Clear
11:15 AM 68.7 °F 56.1 °F 64% 29.99 in 10.0 mi NE 13.8 mph - N/A   Clear
11:35 AM 68.9 °F 55.4 °F 62% 29.99 in 10.0 mi NE 13.8 mph - N/A   Clear
11:55 AM 69.6 °F 56.3 °F 63% 30.00 in 10.0 mi NNE 17.3 mph 23.0 mph N/A   Clear
12:15 PM 68.9 °F 54.7 °F 60% 30.00 in 10.0 mi NE 16.1 mph 21.9 mph N/A   Clear
12:35 PM 69.3 °F 54.5 °F 59% 30.00 in 10.0 mi NNE 15.0 mph - N/A   Clear
12:55 PM 69.8 °F 53.6 °F 56% 30.01 in 10.0 mi NNE 11.5 mph 23.0 mph N/A   Clear
1:15 PM 70.3 °F 54.5 °F 57% 30.00 in 10.0 mi NE 13.8 mph - N/A   Clear
1:35 PM 71.8 °F 55.4 °F 56% 30.00 in 10.0 mi NE 9.2 mph - N/A   Clear
1:55 PM 71.2 °F 54.1 °F 55% 30.01 in 10.0 mi NE 12.7 mph 16.1 mph N/A   Scattered Clouds
2:15 PM 72.1 °F 55.2 °F 55% 30.01 in 10.0 mi North 13.8 mph 17.3 mph N/A   Scattered Clouds
2:35 PM 72.3 °F 55.8 °F 56% 30.01 in 10.0 mi NNE 13.8 mph 17.3 mph N/A   Mostly Cloudy
2:55 PM 71.4 °F 54.7 °F 55% 30.01 in 10.0 mi North 8.1 mph 17.3 mph N/A   Mostly Cloudy
3:15 PM 71.8 °F 54.1 °F 54% 30.00 in 10.0 mi NNE 11.5 mph - N/A   Mostly Cloudy
3:35 PM 71.6 °F 54.3 °F 54% 30.00 in 10.0 mi North 12.7 mph 19.6 mph N/A   Scattered Clouds
3:55 PM 72.0 °F 53.8 °F 53% 30.00 in 10.0 mi North 10.4 mph - N/A   Scattered Clouds
4:15 PM 72.1 °F 53.2 °F 51% 30.00 in 10.0 mi North 11.5 mph - N/A   Clear
4:35 PM 71.8 °F 52.3 °F 50% 30.00 in 10.0 mi North 16.1 mph - N/A   Clear
4:55 PM 71.1 °F 51.3 °F 49% 30.01 in 10.0 mi North 13.8 mph 19.6 mph N/A   Clear
5:15 PM 70.3 °F 49.6 °F 48% 30.01 in 10.0 mi NNE 12.7 mph - N/A   Clear
5:35 PM 69.3 °F 47.5 °F 46% 30.01 in 10.0 mi NE 13.8 mph - N/A   Clear
5:55 PM 67.5 °F 42.8 °F 41% 30.02 in 10.0 mi ENE 12.7 mph 17.3 mph N/A   Clear
6:15 PM 67.1 °F 41.0 °F 39% 30.03 in 10.0 mi NE 10.4 mph - N/A   Clear
6:35 PM 65.5 °F 36.7 °F 35% 30.02 in 10.0 mi ENE 11.5 mph - N/A   Clear
6:55 PM 65.5 °F 35.8 °F 33% 30.03 in 10.0 mi NE 8.1 mph - N/A   Clear
7:15 PM 64.6 °F 34.5 °F 33% 30.03 in 10.0 mi NE 11.5 mph - N/A   Clear
7:35 PM 64.0 °F 32.9 °F 31% 30.03 in 10.0 mi NE 10.4 mph - N/A   Clear
7:55 PM 62.6 °F 34.0 °F 34% 30.04 in 10.0 mi ENE 9.2 mph - N/A   Clear
8:15 PM 62.1 °F 33.6 °F 34% 30.04 in 10.0 mi NE 10.4 mph - N/A   Clear
8:35 PM 62.1 °F 32.5 °F 33% 30.04 in 10.0 mi NE 13.8 mph 18.4 mph N/A   Clear
8:55 PM 61.9 °F 32.9 °F 34% 30.04 in 10.0 mi NE 11.5 mph - N/A   Clear
9:15 PM 61.3 °F 33.1 °F 35% 30.05 in 10.0 mi NE 10.4 mph - N/A   Clear
9:35 PM 60.1 °F 34.7 °F 39% 30.05 in 10.0 mi NE 9.2 mph - N/A   Clear
9:55 PM 59.0 °F 36.0 °F 42% 30.06 in 10.0 mi NE 8.1 mph - N/A   Clear
10:15 PM 58.1 °F 37.2 °F 46% 30.05 in 10.0 mi NE 6.9 mph - N/A   Clear
10:35 PM 59.4 °F 36.5 °F 43% 30.05 in 10.0 mi NNE 9.2 mph - N/A   Clear
10:55 PM 59.0 °F 37.0 °F 44% 30.05 in 10.0 mi NNE 9.2 mph - N/A   Clear
11:15 PM 58.5 °F 37.8 °F 46% 30.05 in 10.0 mi NNE 8.1 mph - N/A   Clear
11:35 PM 58.1 °F 38.1 °F 47% 30.04 in 10.0 mi NNE 10.4 mph - N/A   Clear
11:55 PM 57.9 °F 38.5 °F 48% 30.03 in 10.0 mi NNE 11.5 mph - N/A   Clear